This demonstration page uses our WeatherBlox Daily Observations layout. Learn more.

Left ArrowRight Arrow

41.86663, -103.66717

Hourly Observations for October 20, 2018

Temp ( °F °C ) Dew Point ( °F °C ) Humidity (%) Winds ( mph kmh ) Pressure ( in mb ) Visibility ( mi km ) Precip ( " mm )
12:53 am 00:53 Clear 34 1.1 31 -0.6 89 89 undefined N/A 30.35 1028 10 16 0.00 0.03
1:53 am 01:53 Clear 35 1.7 31 -0.6 85 85 NW 6 9 30.35 1028 10 16 0.00 0.03
2:53 am 02:53 Clear 35 1.7 30 -1.1 82 82 NNW 7 11 30.34 1028 10 16 0.00 0.00
3:53 am 03:53 Clear 31 -0.6 30 -1.1 96 96 NW 3 6 30.35 1028 10 16 0.00 0.00
4:53 am 04:53 Clear with Light Snow 32 0 30 -1.1 92 92 WNW 5 7 30.36 1028 9 14 0.00 0.03
5:53 am 05:53 Clear 29 -1.7 28 -2.2 96 96 NW 9 15 30.39 1029 9 14 0.00 0.03
6:53 am 06:53 Clear 31 -0.6 29 -1.7 92 92 Calm 30.42 1030 10 16 0.00 0.03
7:53 am 07:53 Sunny 33 0.6 31 -0.6 92 92 W 8 13 30.42 1030 10 16 0.00 0.00
8:53 am 08:53 Sunny 40 4.4 34 1.1 79 79 Calm 30.45 1031 10 16 0.00 0.00
9:53 am 09:53 Sunny 48 8.9 36 2.2 63 63 Calm 30.43 1031 10 16 0.00 0.00
10:53 am 10:53 Sunny 56 13.3 35 1.7 46 46 Calm 30.40 1029 10 16 0.00 0.00
11:53 am 11:53 Sunny 59 15 32 0 36 36 SSE 6 9 30.38 1029 10 16 0.00 0.00
12:53 pm 12:53 Sunny 62 16.7 32 0 32 32 SSE 6 9 30.34 1027 10 16 0.00 0.00
1:53 pm 13:53 Sunny 65 18.3 34 1.1 32 32 SE 7 11 30.29 1026 10 16 0.00 0.00
2:53 pm 14:53 Sunny 68 20 33 0.6 27 27 ESE 13 20 30.26 1025 10 16 0.00 0.00
3:53 pm 15:53 Sunny 70 21.1 34 1.1 27 27 ESE 14 22 30.24 1024 10 16 0.00 0.00
4:53 pm 16:53 Sunny 69 20.6 32 0 25 25 SE 10 17 30.22 1023 10 16 0.00 0.00
5:53 pm 17:53 Sunny 60 15.6 34 1.1 38 38 ESE 9 15 30.24 1024 10 16 0.00 0.00
6:53 pm 18:53 Clear 52 11.1 35 1.7 53 53 undefined N/A 30.26 1025 10 16 0.00 0.00
7:53 pm 19:53 Clear 49 9.4 35 1.7 59 59 ESE 8 13 30.26 1025 10 16 0.00 0.00
8:53 pm 20:53 Clear 46 7.8 35 1.7 66 66 E 9 15 30.25 1024 10 16 0.00 0.00
9:53 pm 21:53 Clear 43 6.1 35 1.7 74 74 E 8 13 30.23 1024 10 16 0.00 0.00
10:53 pm 22:53 Clear 41 5 34 1.1 76 76 E 7 11 30.20 1023 10 16 0.00 0.00
11:53 pm 23:53 Clear 42 5.6 34 1.1 73 73 ENE 6 9 30.18 1022 10 16 0.00 0.00

Powered by AerisWeather